Regional Weather Roundup
Issued by NWS State College, PA

Home | Current Version | Previous Version | Graphics & Text | Print | Product List | Glossary Off
Versions: 1 2 3 4 5 6 7 8 9 10 11 12 13 14 15 16 17 18 19 20 21 22 23 24 25 26 27 28 29 30 31 32 33 34 35 36 37 38 39 40 41 42 43 44 45 46 47 48 49 50

000
ASUS41 KCTP 280310
RWRCTP

REGIONAL WEATHER ROUNDUP
NATIONAL WEATHER SERVICE STATE COLLEGE PA
1100 PM EDT WED MAY 27 2015

Note: "fair" indicates few or no clouds below 12,000 feet with no
significant weather and/or obstructions to visibility.

* = STATION THAT DOES NOT REPORT PRECIPITATION /E.G. RAIN...SNOW...ETC/
    THUNDER OR FOG.

PAZ002>004-007>009-013>016-020>023-029>032-280400-
WESTERN PENNSYLVANIA

CITY           SKY/WX    TMP DP  RH WIND       PRES   REMARKS
ERIE           LGT RAIN  65  59  81 S15       30.07S
MEADVILLE      RAIN      62  59  90 SW8       30.15R FOG
FRANKLIN*      CLOUDY    63  55  77 W9        30.16R THUNDER
NEW CASTLE     RAIN      64  63  97 CALM      30.16R
BEAVER COUNTY  NOT AVBL
BUTLER*        PTCLDY    72  61  68 SW6       30.13S
PITTSBURGH INT PTCLDY    72  63  73 S5        30.11R
PITTSBURGH     CLEAR     71  59  65 S7        30.11S
INDIANA*       PTCLDY    68  63  83 CALM      30.17R
LATROBE        NOT AVBL
WASHINGTON CO* PTCLDY    63  61  94 CALM      30.14S
$$

PAZ004>006-010>012-017>019-024>028-033>037-041-042-045-046-049>053-280400-
CENTRAL PENNSYLVANIA

CITY           SKY/WX    TMP DP  RH WIND       PRES   REMARKS
BRADFORD       PTCLDY    61  56  83 CALM      30.16R
DUBOIS         PTCLDY    70  58  65 S6        30.14R
CLEARFIELD     PTCLDY    65  59  81 CALM      30.15R
JOHNSTOWN      PTCLDY    67  58  72 S5        30.18R
ALTOONA        CLEAR     67  59  75 S3        30.16R
STATE COLLEGE  PTCLDY    70  60  71 CALM      30.15R
WILLIAMSPORT   CLEAR     71  64  78 CALM      30.10R
SELINSGROVE    CLEAR     71  67  87 CALM      30.13R
FT INDIANTOWN  FOG       65  65 100 N2        30.15S VSB 3/4
CAPITAL CITY   CLEAR     72  66  81 CALM      30.14R
HARRISBURG     PTCLDY    72  67  84 SE6       30.13S
YORK           FAIR      67  65  93 CALM      30.14F
$$

PAZ038>040-043-044-047-048-054-055-060>062-067>071-280400-
EASTERN PENNSYLVANIA

CITY           SKY/WX    TMP DP  RH WIND       PRES   REMARKS
SCRANTON       CLEAR     68  64  87 CALM      30.13S
MOUNT POCONO   PTCLDY    64  62  93 W5        30.18F
ALLENTOWN      PTCLDY    68  66  94 CALM      30.15S FOG
QUAKERTOWN*    PTCLDY    66  66 100 CALM      30.17S
READING        CLEAR     70  67  90 SW5       30.14S
LANCASTER      CLEAR     67  65  93 CALM      30.15S
COATESVILLE    PTCLDY    68  68 100 CALM      30.18S FOG
POTTSTOWN      PTCLDY    67  67 100 CALM      30.17S FOG
BLUE BELL      PTCLDY    72  70  94 S3        30.15F
DOYLESTOWN     PTCLDY    67  67 100 CALM      30.15S
WILLOW GROVE   NOT AVBL
NORTH PHILA    MOCLDY    74  67  78 S3        30.16F
PHILADELPHIA   CLOUDY    74  70  87 S7        30.16S
$$



USA.gov is the U.S. government's official web portal to all federal, state and local government web resources and services.